When you browse on this site, cookies collect data to enhance your experience and personalize the content and advertising you see.
Visit our Privacy Policy to learn more. By continuing to use the site, you agree to this use of cookies and data.
  • en Suisse
  • Liste des pays
  • À 7 jours
  • Température de l'eau
  • Carte satellitaire
  • Carte météo
  • Widgets météo
  • user-avatar
    Se connecter

    Météo par heure à Salvador

    Ce jour, 24 Janvier, Jeudi

    Heure Température Précipitation Vent Pression Humidité
    00:00 +27°C° 0.1 mm 3 m/s 756 mmHg 85%
    01:00 +26°C° 0.4 mm 3 m/s 756 mmHg 87%
    02:00 +26°C° 0.4 mm 3 m/s 756 mmHg 88%
    03:00 +26°C° 0.4 mm 3 m/s 756 mmHg 89%
    04:00 +26°C° 0.9 mm 3 m/s 756 mmHg 90%
    05:00 +26°C° 0.9 mm 3 m/s 757 mmHg 90%
    06:00 +26°C° 0.9 mm 2 m/s 757 mmHg 90%
    07:00 +27°C° 1.5 mm 2 m/s 757 mmHg 84%
    08:00 +28°C° 1.5 mm 1 m/s 757 mmHg 78%
    09:00 +30°C° 1.5 mm 1 m/s 757 mmHg 72%
    10:00 +30°C° 1 mm 2 m/s 757 mmHg 68%
    11:00 +31°C° 1 mm 3 m/s 757 mmHg 64%
    12:00 +33°C° 1 mm 3 m/s 757 mmHg 60%
    13:00 +33°C° 0 mm 4 m/s 756 mmHg 59%
    14:00 +33°C° 0 mm 4 m/s 756 mmHg 58%
    15:00 +33°C° 0 mm 5 m/s 755 mmHg 57%
    16:00 +32°C° 0 mm 4 m/s 755 mmHg 62%
    17:00 +30°C° 0 mm 4 m/s 755 mmHg 67%
    18:00 +29°C° 0 mm 4 m/s 755 mmHg 73%
    19:00 +29°C° 0 mm 4 m/s 756 mmHg 76%
    20:00 +28°C° 0 mm 4 m/s 756 mmHg 79%
    21:00 +27°C° 0 mm 4 m/s 757 mmHg 82%
    22:00 +27°C° 0 mm 4 m/s 757 mmHg 84%
    23:00 +27°C° 0 mm 3 m/s 757 mmHg 85%

    Demain, 25 Janvier, Vendredi

    Heure Température Précipitation Vent Pression Humidité
    00:00 +27°C° 0 mm 3 m/s 757 mmHg 86%
    01:00 +26°C° 0 mm 3 m/s 756 mmHg 87%
    02:00 +26°C° 0 mm 3 m/s 756 mmHg 88%
    03:00 +26°C° 0 mm 3 m/s 756 mmHg 89%
    04:00 +26°C° 0 mm 3 m/s 756 mmHg 88%
    05:00 +26°C° 0 mm 3 m/s 756 mmHg 88%
    06:00 +26°C° 0 mm 2 m/s 756 mmHg 87%
    07:00 +28°C° 0 mm 3 m/s 757 mmHg 78%
    08:00 +30°C° 0 mm 3 m/s 757 mmHg 68%
    09:00 +31°C° 0 mm 3 m/s 757 mmHg 59%
    10:00 +33°C° 0 mm 3 m/s 757 mmHg 57%
    11:00 +34°C° 0 mm 3 m/s 757 mmHg 54%
    12:00 +34°C° 0 mm 3 m/s 757 mmHg 52%
    13:00 +34°C° 0 mm 4 m/s 756 mmHg 54%
    14:00 +34°C° 0 mm 4 m/s 755 mmHg 56%
    15:00 +34°C° 0 mm 5 m/s 755 mmHg 57%
    16:00 +32°C° 0 mm 5 m/s 755 mmHg 63%
    17:00 +30°C° 0 mm 5 m/s 755 mmHg 69%
    18:00 +29°C° 0 mm 5 m/s 755 mmHg 75%
    19:00 +28°C° 0 mm 4 m/s 755 mmHg 77%
    20:00 +28°C° 0 mm 4 m/s 756 mmHg 80%
    21:00 +28°C° 0 mm 4 m/s 757 mmHg 82%
    22:00 +27°C° 0 mm 4 m/s 757 mmHg 82%
    23:00 +27°C° 0 mm 4 m/s 757 mmHg 83%

    Après-demain, 26 Janvier, Samedi

    Heure Température Précipitation Vent Pression Humidité
    00:00 +27°C° 0 mm 3 m/s 757 mmHg 83%
    01:00 +27°C° 0 mm 3 m/s 756 mmHg 84%
    02:00 +27°C° 0 mm 3 m/s 756 mmHg 84%
    03:00 +26°C° 0 mm 3 m/s 756 mmHg 85%
    04:00 +26°C° 0 mm 3 m/s 756 mmHg 85%
    05:00 +27°C° 0 mm 3 m/s 756 mmHg 84%
    06:00 +27°C° 0 mm 3 m/s 757 mmHg 84%
    07:00 +28°C° 0 mm 3 m/s 757 mmHg 76%
    08:00 +30°C° 0 mm 3 m/s 757 mmHg 68%
    09:00 +32°C° 0 mm 4 m/s 758 mmHg 60%
    10:00 +33°C° 0 mm 4 m/s 757 mmHg 57%
    11:00 +34°C° 0 mm 4 m/s 757 mmHg 54%
    12:00 +34°C° 0 mm 4 m/s 757 mmHg 52%
    13:00 +34°C° 0 mm 5 m/s 756 mmHg 53%
    14:00 +34°C° 0 mm 5 m/s 755 mmHg 54%
    15:00 +33°C° 0 mm 5 m/s 755 mmHg 55%
    16:00 +32°C° 0 mm 5 m/s 755 mmHg 60%
    17:00 +30°C° 0 mm 5 m/s 755 mmHg 66%
    18:00 +29°C° 0 mm 5 m/s 756 mmHg 71%
    19:00 +28°C° 0 mm 5 m/s 756 mmHg 74%
    20:00 +28°C° 0 mm 4 m/s 757 mmHg 76%
    21:00 +28°C° 0 mm 4 m/s 758 mmHg 79%
    22:00 +27°C° 0 mm 4 m/s 757 mmHg 80%
    23:00 +27°C° 0 mm 4 m/s 757 mmHg 81%

    27 Janvier, Dimanche

    Heure Température Précipitation Vent Pression Humidité
    00:00 +27°C° 0 mm 4 m/s 757 mmHg 82%
    01:00 +27°C° 0 mm 4 m/s 757 mmHg 83%
    02:00 +26°C° 0 mm 3 m/s 757 mmHg 84%
    03:00 +26°C° 0 mm 3 m/s 756 mmHg 85%
    04:00 +26°C° 0 mm 3 m/s 756 mmHg 84%
    05:00 +26°C° 0 mm 3 m/s 757 mmHg 84%
    06:00 +26°C° 0 mm 3 m/s 757 mmHg 84%
    07:00 +28°C° 0.1 mm 3 m/s 757 mmHg 76%
    08:00 +30°C° 0.1 mm 3 m/s 758 mmHg 68%
    09:00 +31°C° 0.1 mm 3 m/s 758 mmHg 60%
    10:00 +33°C° 0 mm 3 m/s 758 mmHg 57%
    11:00 +34°C° 0 mm 4 m/s 758 mmHg 54%
    12:00 +35°C° 0 mm 4 m/s 757 mmHg 51%
    13:00 +34°C° 0 mm 4 m/s 757 mmHg 52%
    14:00 +34°C° 0 mm 5 m/s 756 mmHg 53%
    15:00 +33°C° 0 mm 5 m/s 756 mmHg 55%
    16:00 +32°C° 0 mm 5 m/s 756 mmHg 61%
    17:00 +30°C° 0 mm 5 m/s 756 mmHg 67%
    18:00 +29°C° 0 mm 4 m/s 756 mmHg 73%
    19:00 +28°C° 0 mm 4 m/s 757 mmHg 74%
    20:00 +28°C° 0 mm 4 m/s 757 mmHg 76%
    21:00 +28°C° 0 mm 4 m/s 758 mmHg 78%
    22:00 +27°C° 0.1 mm 4 m/s 758 mmHg 79%
    23:00 +27°C° 0.1 mm 4 m/s 757 mmHg 81%

    28 Janvier, Lundi

    Heure Température Précipitation Vent Pression Humidité
    00:00 +27°C° 0.1 mm 3 m/s 757 mmHg 82%
    01:00 +27°C° 1 mm 3 m/s 757 mmHg 85%
    02:00 +26°C° 1 mm 3 m/s 757 mmHg 87%
    03:00 +26°C° 1 mm 3 m/s 756 mmHg 89%
    04:00 +26°C° 0.6 mm 3 m/s 756 mmHg 89%
    05:00 +26°C° 0.6 mm 3 m/s 757 mmHg 89%
    06:00 +26°C° 0.6 mm 2 m/s 757 mmHg 89%
    07:00 +27°C° 2.3 mm 3 m/s 757 mmHg 86%
    08:00 +28°C° 2.3 mm 3 m/s 758 mmHg 83%
    09:00 +29°C° 2.3 mm 4 m/s 758 mmHg 79%
    10:00 +29°C° 1 mm 4 m/s 758 mmHg 79%
    11:00 +30°C° 1 mm 5 m/s 757 mmHg 79%
    12:00 +30°C° 1 mm 5 m/s 757 mmHg 78%
    13:00 +32°C° 0.1 mm 5 m/s 757 mmHg 73%
    14:00 +32°C° 0.1 mm 5 m/s 756 mmHg 67%
    15:00 +33°C° 0.1 mm 6 m/s 756 mmHg 62%
    16:00 +32°C° 0 mm 5 m/s 756 mmHg 66%
    17:00 +30°C° 0 mm 5 m/s 756 mmHg 71%
    18:00 +29°C° 0 mm 4 m/s 756 mmHg 75%
    19:00 +29°C° 0.2 mm 4 m/s 757 mmHg 77%
    20:00 +28°C° 0.2 mm 4 m/s 757 mmHg 80%
    21:00 +28°C° 0.2 mm 5 m/s 757 mmHg 82%
    22:00 +28°C° 0.4 mm 4 m/s 757 mmHg 83%
    23:00 +27°C° 0.4 mm 4 m/s 757 mmHg 83%

    29 Janvier, Mardi

    Heure Température Précipitation Vent Pression Humidité
    00:00 +27°C° 0.4 mm 4 m/s 757 mmHg 83%
    01:00 +27°C° 0.8 mm 3 m/s 757 mmHg 85%
    02:00 +26°C° 0.8 mm 3 m/s 756 mmHg 87%
    03:00 +26°C° 0.8 mm 3 m/s 756 mmHg 89%
    04:00 +26°C° 0.8 mm 2 m/s 756 mmHg 89%
    05:00 +26°C° 0.8 mm 2 m/s 756 mmHg 90%
    06:00 +26°C° 0.8 mm 2 m/s 757 mmHg 90%
    07:00 +27°C° 0.3 mm 2 m/s 757 mmHg 85%
    08:00 +28°C° 0.3 mm 3 m/s 757 mmHg 80%
    09:00 +30°C° 0.3 mm 3 m/s 757 mmHg 74%
    10:00 +31°C° 0.1 mm 3 m/s 757 mmHg 69%
    11:00 +33°C° 0.1 mm 4 m/s 756 mmHg 64%
    12:00 +34°C° 0.1 mm 4 m/s 756 mmHg 59%
    13:00 +33°C° 0.2 mm 4 m/s 756 mmHg 63%
    14:00 +32°C° 0.2 mm 4 m/s 755 mmHg 67%
    15:00 +32°C° 0.2 mm 5 m/s 755 mmHg 70%
    16:00 +30°C° 0.1 mm 5 m/s 755 mmHg 73%
    17:00 +29°C° 0.1 mm 4 m/s 755 mmHg 76%
    18:00 +28°C° 0.1 mm 4 m/s 755 mmHg 79%
    19:00 +28°C° 0.1 mm 4 m/s 756 mmHg 80%
    20:00 +28°C° 0.1 mm 4 m/s 756 mmHg 82%
    21:00 +27°C° 0.1 mm 4 m/s 756 mmHg 83%
    22:00 +27°C° 0.1 mm 4 m/s 756 mmHg 84%
    23:00 +27°C° 0.1 mm 4 m/s 756 mmHg 84%
    Voir plus